Temperature
14 14 14 14 14 15 15 15 15 15 15 15 15 15 15 15 15 15 15 15 15 15 15 15 15 15 15 15 15 15 15 15 15 15 15 15 15 15 15 14 14 14 14
14 14 14 14 14 14 14 14 14 15 15 15 15 15 15 15 15 15 15 15 15 15 15 15 15 15 15 15 15 15 15 15 15 15 15 14 14 14 14 14 14 14 14
14 14 14 14 14 14 14 14 14 14 14 14 14 14 14 14 14 15 14 15 14 14 14 14 14 15 15 15 15 15 15 14 14 14 14 14 14 14 14 14 14 14 14
14 14 14 14 14 14 14 14 14 14 14 14 14 14 14 14 14 14 14 14 14 14 14 14 14 14 14 14 14 14 14 14 14 14 13 13 13 14 14 14 14 14 14
13 13 14 14 13 13 14 14 14 14 14 14 14 14 14 14 14 14 14 14 14 14 14 14 14 14 14 14 14 14 14 14 14 13 13 13 13 13 13 13 13 13 13
13 13 13 13 13 13 13 13 13 13 14 13 13 14 14 14 14 14 14 14 14 14 14 14 14 14 14 14 14 14 14 14 13 13 13 13 13 13 13 13 13 13 13
12 13 13 13 13 13 13 13 13 13 13 13 13 13 13 13 13 14 14 14 14 14 14 14 14 14 14 14 14 14 14 14 13 13 13 13 13 13 13 13 13 13 12
12 12 12 13 13 13 13 13 13 13 13 13 13 13 13 13 13 13 13 13 13 13 13 13 13 13 14 14 14 14 13 13 13 12 12 12 13 13 12 12 12 12 12
12 12 12 12 12 12 12 13 13 13 13 13 13 13 13 13 13 13 13 13 13 13 13 13 13 13 13 13 13 13 13 13 12 12 12 12 12 12 12 12 12 12 12
12 12 12 12 12 12 12 12 12 12 12 12 12 12 12 13 13 12 12 12 13 13 13 12 12 13 13 13 13 13 13 13 12 12 12 12 12 12 12 12 12 12 11
11 11 12 12 12 12 12 12 12 12 12 12 12 12 12 12 12 12 12 12 12 12 12 12 12 12 12 12 12 12 12 12 12 12 12 12 12 12 12 12 11 11 11
11 11 11 11 11 11 11 12 12 12 12 12 12 12 12 12 12 12 12 12 12 12 12 12 12 12 12 12 12 12 12 11 11 11 11 11 11 11 11 11 11 11 11
11 11 11 11 11 11 11 11 11 11 11 11 11 11 11 11 11 11 11 11 12 12 11 12 11 11 11 11 11 11 11 11 11 11 11 11 11 11 11 11 11 11 10
10 10 10 10 11 11 11 11 11 11 11 11 11 11 11 11 11 11 11 11 11 11 11 11 11 11 11 11 11 11 11 11 11 11 11 11 11 11 11 10 10 10 10
10 10 10 10 10 10 10 10 10 10 10 10 11 11 10 10 11 11 11 11 11 11 11 11 11 11 11 10 10 10 10 10 10 10 10 11 10 10 10 10 10 10 10
9 9 10 10 10 10 10 10 10 10 10 10 10 10 10 10 10 10 10 10 10 10 10 10 10 10 10 10 10 10 10 10 10 10 10 10 10 10 10 10 9 9 9
9 9 9 9 9 10 10 10 10 10 9 10 10 10 10 10 10 10 9 9 10 10 10 10 10 10 10 10 9 10 10 10 10 9 9 9 9 9 9 9 9 9 9
8 9 9 9 9 9 9 9 9 9 9 9 9 9 9 9 9 9 9 9 9 9 9 9 9 9 9 9 9 9 9 9 9 9 9 9 9 9 8 9 9 9 9
8 8 8 8 8 8 9 8 8 8 8 8 8 8 8 8 8 8 8 8 8 8 8 8 8 8 8 8 8 8 8 9 8 8 8 8 8 8 8 8 8 8 8
8 8 8 8 8 8 8 8 8 8 8 8 8 8 8 8 8 8 8 8 8 8 8 8 8 7 7 8 8 8 8 8 8 8 7 7 7 7 7 7 7 7 7
7 7 7 7 7 7 7 7 7 7 7 7 7 7 7 7 7 7 7 7 7 7 7 7 7 6 7 7 7 7 7 7 7 7 7 7 6 6 6 6 6 6 6
7 7 7 7 7 7 7 7 7 7 7 7 7 7 6 7 7 7 6 6 6 6 6 6 6 6 6 6 5 5 5 5 6 6 6 6 6 6 6 6 5 6 6
6 6 6 6 6 6 6 6 6 6 6 6 6 6 6 6 6 6 6 6 6 6 5 5 5 5 5 5 4 4 4 5 4 5 5 5 5 5 5 5 5 5 5
6 6 6 6 6 6 6 6 6 6 5 5 6 6 5 5 5 5 5 5 5 5 5 5 4 4 4 4 4 4 3 3 3 3 4 4 4 4 4 4 4 4 4
6 6 6 5 5 5 5 5 5 5 5 5 5 5 5 5 5 5 5 5 4 4 4 4 4 4 3 3 3 3 2 2 2 2 2 3 3 3 3 3 3 3 3
6 6 6 5 5 5 5 5 5 5 4 4 4 4 4 4 4 4 4 4 4 4 3 3 3 3 3 3 2 2 2 1 1 1 1 1 1 2 2 2 2 2 2
Wind_Speed
2 2 3 4 5 7 8 8 9 9 9 10 10 10 11 11 12 12 11 11 11 10 10 11 11 12 12 13 13 13 12 12 12 12 12 13 13 13 12 11 9 11 12
2 3 5 4 6 8 8 9 9 9 9 10 11 11 11 11 11 12 11 11 11 11 11 11 11 11 12 12 12 12 12 12 12 11 11 11 12 12 12 11 10 10 11
3 4 5 5 7 8 8 9 9 9 10 10 10 11 11 11 11 11 11 11 11 11 11 11 11 11 12 12 11 11 11 11 10 9 6 8 10 11 11 10 10 10 10
3 4 5 6 7 9 10 9 9 9 9 10 10 10 10 11 11 11 11 11 11 11 11 12 12 11 11 11 11 10 10 9 9 5 6 8 8 10 9 9 8 8 8
3 4 6 7 8 9 10 10 9 9 10 10 10 9 10 10 10 10 11 10 11 11 11 11 12 11 11 10 10 9 9 8 6 5 7 7 7 9 8 8 7 7 7
4 4 7 7 8 8 9 9 9 9 9 9 9 9 10 9 10 10 10 10 10 10 10 10 10 10 11 10 10 9 8 7 4 6 6 6 6 7 7 7 7 7 7
4 4 6 7 7 8 8 9 9 9 9 9 9 9 9 10 10 10 10 10 10 10 10 10 10 9 10 9 9 9 9 6 4 5 5 5 6 6 5 5 5 5 6
4 4 6 7 7 7 8 8 9 9 9 9 9 9 9 9 9 9 9 9 9 9 9 10 10 10 9 9 9 8 8 5 4 4 4 4 5 4 3 4 4 4 4
5 4 5 6 6 7 8 9 8 8 8 9 9 9 9 9 9 9 8 8 8 9 9 9 9 9 9 9 8 8 6 4 3 3 3 4 5 3 2 2 2 3 3
4 4 4 5 5 5 7 9 9 9 9 9 10 9 9 9 9 8 8 8 8 8 8 8 8 8 8 8 7 7 5 2 3 3 3 4 5 4 3 3 2 2 2
3 3 3 4 4 5 6 8 9 9 9 9 9 9 7 6 6 7 8 8 7 8 8 7 7 7 6 6 6 5 2 2 2 3 3 5 4 4 3 3 2 2 2
2 2 3 3 4 4 5 6 6 6 6 6 5 5 5 5 5 6 8 9 8 8 7 7 6 5 3 3 4 2 2 2 2 2 4 5 4 3 3 3 3 3 2
1 2 2 2 3 4 4 4 4 4 4 5 5 5 4 4 4 4 4 4 5 5 4 3 3 3 3 2 2 2 2 2 2 2 4 5 4 3 3 3 3 3 3
2 2 2 2 3 3 4 4 4 3 4 4 4 4 3 3 2 3 2 3 3 2 3 2 2 3 3 3 2 2 2 2 2 2 4 6 5 4 4 3 3 3 3
2 2 2 2 3 3 3 3 3 3 3 4 4 3 3 2 2 2 2 2 2 2 2 2 2 2 2 2 3 3 2 2 2 2 2 4 4 5 4 4 4 3 4
3 2 2 2 3 3 3 3 3 3 4 4 4 4 3 3 2 1 2 2 2 2 2 2 2 2 1 2 2 2 2 2 2 2 2 2 4 4 5 5 4 4 4
4 3 3 3 3 3 3 3 3 3 3 4 4 4 4 3 2 2 1 1 2 2 2 2 2 1 1 1 2 2 2 2 2 2 2 2 2 3 4 5 5 5 5
4 4 3 3 3 3 3 3 3 3 3 3 4 4 3 3 2 2 1 1 2 2 2 1 1 1 1 2 2 2 2 2 2 2 2 2 2 3 3 5 5 6 6
4 4 4 4 4 4 4 3 3 3 3 3 3 3 3 3 2 2 1 2 2 2 2 1 2 2 2 2 2 2 2 2 2 2 2 2 2 2 3 3 4 6 6
4 4 4 4 4 4 4 3 3 3 2 3 3 3 3 2 2 2 2 2 2 1 1 1 2 2 2 2 3 3 3 2 2 2 2 1 1 2 2 3 3 4 5
4 4 4 4 4 4 3 3 2 2 1 1 2 2 2 2 2 2 2 1 1 1 1 2 2 2 2 2 2 3 3 2 2 2 2 1 1 2 3 3 4 4 4
4 4 4 5 5 5 3 2 2 2 1 1 1 1 1 1 2 1 1 1 1 1 1 1 1 1 2 2 2 3 2 2 1 2 2 2 2 2 3 4 5 5 5
5 5 4 5 5 4 4 3 2 2 1 1 1 0 0 0 1 0 0 0 0 1 1 1 2 2 2 2 2 2 3 3 3 3 3 3 3 3 3 4 4 5 6
5 5 5 5 5 5 5 4 4 3 2 2 2 1 1 1 1 1 2 1 1 1 2 2 2 2 2 2 2 2 3 3 3 3 3 3 4 5 5 4 5 6 6
5 5 5 5 5 5 5 5 5 3 2 2 2 2 2 2 2 2 2 2 2 2 2 3 2 3 3 3 3 3 4 4 5 5 5 5 5 5 5 6 5 5 6
4 5 5 6 6 5 5 5 5 4 3 3 3 3 2 2 2 3 2 2 2 2 3 3 3 4 4 4 4 4 4 4 4 5 6 7 7 6 6 5 5 5 5
Wind_Direction
153 149 122 110 106 108 103 97 98 100 100 99 99 94 93 93 91 89 86 85 87 86 88 89 87 87 86 84 81 80 79 78 77 77 78 77 75 75 75 72 72 77 73
160 149 122 115 111 113 107 102 101 98 94 95 95 93 92 92 91 88 87 88 87 85 85 83 84 83 85 84 83 81 80 76 75 76 80 82 75 74 73 68 57 67 70
139 145 142 122 117 118 112 106 100 97 95 93 92 91 90 92 91 88 85 85 87 86 84 83 83 82 82 81 81 81 80 77 74 74 84 83 79 73 71 68 67 67 69
132 143 137 119 117 115 111 106 102 99 98 97 94 93 91 89 89 88 84 83 84 84 82 82 85 83 81 79 78 78 79 79 75 73 79 75 79 74 70 70 69 67 67
119 129 116 111 111 112 112 110 107 101 98 96 95 95 93 91 88 86 82 81 83 82 82 82 84 83 79 76 76 77 80 79 81 76 73 74 76 73 68 67 68 71 67
103 112 111 104 108 110 113 114 111 105 101 97 96 96 95 93 91 87 84 82 83 83 83 81 82 83 80 75 73 72 74 77 91 76 72 72 74 71 63 64 68 69 63
97 91 105 102 104 108 115 114 110 107 104 102 97 94 93 92 92 87 83 82 81 81 81 80 80 82 82 79 75 71 66 59 67 75 75 74 70 62 56 61 68 66 58
94 90 98 97 97 100 105 109 108 106 103 101 95 91 90 92 90 87 83 81 81 80 80 80 80 79 79 81 81 76 67 49 60 67 70 70 64 56 47 54 62 65 58
84 85 92 106 107 103 104 102 102 102 101 99 96 94 92 88 87 84 81 79 80 79 79 78 77 76 77 77 77 75 66 41 40 53 56 55 54 39 28 30 50 56 51
77 78 81 93 100 108 107 99 98 95 92 93 93 92 92 91 87 80 79 75 76 80 80 76 75 71 72 74 73 70 60 31 39 40 42 50 39 28 30 33 37 41 43
73 72 80 88 93 98 102 101 98 93 89 91 91 87 93 95 90 83 70 69 71 75 76 74 73 72 71 75 70 66 61 33 34 29 31 36 27 22 19 20 16 11 15
100 81 73 91 95 100 100 104 100 97 97 95 96 93 93 89 82 79 74 66 67 71 75 71 73 77 67 66 68 60 38 24 21 28 31 27 19 15 13 13 12 359 8
134 99 77 87 94 96 96 97 93 97 95 91 86 84 91 91 87 80 78 70 63 63 65 71 72 54 46 42 26 23 21 10 4 17 27 26 15 9 14 18 19 15 12
141 134 125 103 98 96 101 97 95 98 97 88 85 86 91 86 80 72 66 63 54 45 38 34 44 43 33 25 14 7 8 359 346 8 34 34 23 13 6 2 7 7 4
158 148 143 119 115 114 109 97 95 97 96 94 87 80 83 93 90 82 69 61 53 46 40 27 31 37 27 12 3 356 356 351 344 344 19 39 25 12 1 353 350 351 346
180 168 151 136 131 126 119 113 103 96 94 93 88 79 76 76 80 88 78 59 46 35 28 16 20 14 15 0 347 340 338 335 334 329 333 21 38 23 3 354 347 343 336
190 178 161 150 135 131 123 114 102 97 104 97 91 84 77 71 70 70 67 53 33 22 22 12 23 10 7 349 335 338 339 333 330 329 328 331 359 30 13 358 353 347 338
190 179 167 149 145 141 131 124 105 103 100 94 92 88 80 72 62 63 63 45 26 19 16 13 7 356 346 335 332 333 329 324 315 318 321 328 337 346 5 8 355 347 342
189 178 170 163 157 151 137 124 113 103 94 92 90 84 79 74 63 54 49 42 33 32 27 14 2 344 331 331 325 318 310 304 304 301 304 322 338 343 341 360 4 360 352
182 177 170 162 158 148 133 125 114 105 97 93 87 77 78 74 62 54 55 47 41 35 22 9 5 348 324 322 318 309 296 287 282 280 289 309 334 334 338 342 341 352 353
174 175 171 166 159 150 147 150 148 150 142 118 88 86 82 75 69 58 52 50 32 19 9 0 356 339 345 337 315 309 286 264 261 259 277 284 313 326 331 337 335 332 334
181 180 176 176 169 165 162 156 165 172 179 138 100 96 89 80 73 65 57 37 4 330 355 357 330 323 332 337 316 300 290 252 237 269 280 282 295 315 326 332 330 325 321
191 191 187 181 175 171 158 141 134 133 141 176 181 188 297 224 148 130 200 241 266 278 279 272 272 289 293 304 307 299 289 286 309 263 270 274 290 299 309 317 318 318 319
199 193 192 186 182 175 170 173 176 186 202 214 216 224 228 228 220 211 221 228 235 251 261 264 270 280 272 276 286 279 284 293 283 289 266 273 290 294 296 304 308 308 308
195 191 192 186 186 186 188 189 194 202 211 206 206 213 222 226 230 220 221 224 234 245 256 262 266 266 258 263 268 276 272 270 262 266 279 287 289 285 292 296 297 301 305
188 187 189 189 193 193 194 197 202 203 203 204 215 218 221 224 233 230 228 231 237 244 254 261 258 256 254 255 259 262 265 265 267 266 275 286 288 290 292 287 287 294 300
Height
1529 1529 1530 1531 1531 1532 1533 1533 1534 1534 1534 1534 1534 1534 1535 1534 1534 1534 1534 1534 1534 1534 1534 1534 1534 1534 1534 1533 1533 1533 1532 1532 1532 1532 1532 1532 1531 1531 1531 1531 1531 1530 1530
1529 1530 1530 1531 1532 1533 1534 1534 1534 1534 1535 1535 1535 1535 1535 1535 1535 1535 1535 1535 1535 1535 1536 1535 1535 1535 1535 1534 1534 1534 1533 1533 1533 1533 1533 1533 1533 1532 1532 1532 1531 1531 1531
1529 1530 1530 1531 1532 1533 1534 1534 1535 1535 1535 1536 1536 1536 1536 1536 1536 1536 1536 1536 1536 1536 1536 1536 1536 1536 1536 1535 1535 1535 1534 1534 1534 1534 1534 1534 1534 1533 1533 1532 1532 1532 1531
1529 1530 1531 1532 1533 1533 1534 1534 1535 1536 1536 1536 1536 1537 1537 1536 1537 1537 1537 1537 1537 1537 1537 1537 1537 1537 1536 1536 1536 1536 1535 1535 1535 1535 1536 1535 1535 1534 1534 1533 1533 1532 1532
1529 1530 1531 1532 1533 1533 1534 1535 1535 1536 1536 1537 1537 1537 1537 1537 1537 1537 1537 1537 1537 1537 1537 1537 1537 1537 1537 1537 1537 1536 1536 1536 1536 1536 1536 1536 1536 1535 1534 1534 1533 1533 1533
1529 1530 1531 1532 1533 1534 1534 1535 1536 1536 1537 1537 1537 1537 1538 1538 1538 1538 1538 1538 1538 1538 1538 1538 1538 1537 1537 1537 1537 1537 1537 1536 1536 1537 1537 1536 1536 1535 1535 1534 1534 1534 1533
1529 1530 1531 1532 1533 1533 1534 1535 1536 1536 1537 1537 1537 1537 1537 1538 1538 1538 1538 1538 1538 1538 1538 1538 1538 1538 1537 1537 1537 1537 1537 1537 1537 1537 1537 1536 1536 1536 1535 1535 1534 1534 1533
1529 1529 1530 1531 1532 1533 1534 1535 1536 1536 1537 1537 1537 1537 1537 1538 1538 1538 1538 1538 1538 1538 1538 1538 1538 1538 1538 1537 1537 1537 1537 1537 1537 1537 1537 1536 1536 1536 1535 1535 1534 1534 1533
1528 1529 1530 1531 1532 1533 1534 1535 1535 1536 1537 1537 1537 1537 1537 1537 1538 1538 1538 1538 1538 1538 1538 1538 1538 1538 1537 1537 1537 1537 1537 1537 1537 1537 1536 1536 1536 1535 1535 1535 1534 1534 1533
1528 1529 1530 1530 1531 1532 1533 1534 1535 1536 1536 1537 1537 1537 1537 1538 1538 1538 1538 1538 1538 1538 1538 1537 1537 1537 1537 1537 1537 1536 1536 1536 1537 1536 1536 1536 1535 1535 1534 1534 1534 1533 1533
1527 1528 1529 1529 1530 1531 1532 1533 1534 1535 1536 1536 1536 1537 1537 1537 1537 1538 1537 1537 1537 1537 1537 1537 1537 1537 1537 1536 1536 1536 1536 1536 1536 1536 1535 1534 1534 1534 1533 1533 1533 1532 1532
1526 1527 1528 1529 1529 1530 1531 1532 1533 1534 1535 1535 1536 1536 1536 1537 1537 1537 1537 1537 1537 1537 1536 1536 1536 1536 1536 1536 1535 1535 1535 1535 1535 1535 1534 1534 1533 1533 1532 1532 1531 1531 1531
1525 1526 1527 1527 1528 1529 1530 1531 1532 1533 1533 1534 1534 1535 1535 1536 1536 1536 1536 1536 1536 1536 1536 1536 1536 1535 1535 1535 1535 1534 1534 1534 1534 1533 1533 1532 1532 1532 1531 1530 1530 1530 1529
1524 1524 1525 1526 1527 1528 1529 1530 1531 1532 1532 1533 1533 1533 1534 1534 1535 1535 1535 1535 1535 1534 1534 1534 1534 1534 1534 1534 1534 1533 1533 1532 1532 1532 1531 1531 1530 1530 1529 1529 1528 1528 1528
1522 1523 1523 1524 1526 1527 1528 1528 1529 1530 1531 1531 1532 1532 1533 1533 1534 1534 1533 1533 1533 1533 1533 1533 1533 1533 1533 1532 1532 1532 1531 1531 1530 1530 1529 1529 1528 1528 1527 1527 1526 1526 1526
1520 1521 1521 1522 1524 1525 1526 1527 1527 1528 1529 1530 1530 1530 1531 1532 1532 1532 1532 1532 1532 1532 1531 1531 1531 1531 1530 1530 1530 1530 1529 1529 1528 1528 1527 1526 1526 1525 1525 1524 1524 1524 1523
1518 1519 1519 1520 1522 1523 1524 1525 1526 1526 1527 1528 1528 1529 1529 1530 1530 1530 1530 1530 1530 1530 1529 1529 1529 1529 1528 1528 1528 1527 1527 1526 1526 1525 1524 1524 1523 1522 1522 1521 1521 1521 1520
1516 1517 1517 1518 1519 1520 1521 1523 1524 1525 1526 1526 1527 1527 1528 1528 1528 1528 1528 1528 1528 1528 1528 1527 1527 1527 1526 1526 1525 1525 1524 1523 1523 1522 1522 1521 1521 1520 1519 1519 1518 1518 1517
1514 1515 1515 1516 1517 1518 1519 1520 1522 1523 1523 1524 1525 1525 1525 1526 1526 1526 1526 1526 1526 1526 1526 1525 1525 1525 1524 1523 1523 1522 1521 1521 1520 1519 1519 1518 1517 1517 1516 1516 1515 1514 1514
1512 1512 1513 1514 1515 1516 1517 1518 1519 1520 1521 1522 1523 1523 1523 1524 1524 1524 1524 1524 1524 1524 1524 1523 1523 1522 1522 1521 1520 1519 1519 1518 1517 1517 1516 1515 1514 1514 1513 1513 1512 1511 1510
1509 1510 1510 1511 1512 1513 1514 1516 1516 1518 1519 1520 1520 1521 1521 1521 1522 1522 1522 1522 1522 1522 1521 1521 1520 1520 1519 1518 1518 1517 1516 1515 1514 1514 1513 1513 1512 1511 1510 1510 1509 1508 1507
1507 1508 1508 1509 1510 1511 1512 1513 1515 1516 1517 1517 1518 1518 1519 1519 1519 1519 1519 1519 1519 1519 1519 1518 1518 1518 1517 1517 1517 1516 1515 1515 1512 1511 1510 1510 1509 1508 1507 1506 1505 1504 1503
1504 1505 1506 1507 1508 1509 1510 1511 1513 1513 1514 1515 1515 1516 1516 1516 1516 1517 1517 1517 1517 1517 1516 1516 1516 1516 1515 1515 1515 1515 1515 1513 1511 1509 1507 1506 1506 1505 1504 1503 1502 1501 1499
1502 1503 1504 1505 1506 1506 1507 1509 1510 1510 1511 1512 1512 1513 1513 1514 1514 1514 1514 1514 1514 1514 1514 1514 1514 1513 1513 1512 1512 1512 1512 1510 1510 1507 1505 1504 1502 1501 1500 1499 1498 1496 1495
1500 1500 1501 1502 1503 1504 1505 1506 1507 1508 1509 1509 1510 1510 1511 1511 1511 1511 1511 1511 1511 1511 1511 1511 1510 1510 1510 1509 1509 1508 1508 1507 1506 1505 1502 1500 1499 1498 1496 1495 1493 1492 1490
1497 1498 1499 1499 1500 1501 1502 1503 1504 1505 1505 1506 1506 1507 1507 1507 1508 1508 1508 1508 1508 1507 1507 1507 1507 1507 1506 1506 1505 1505 1504 1504 1503 1502 1500 1497 1495 1494 1492 1490 1489 1487 1486